Location: ???????
(55.9000°N, 38.4833°E)
Time: 20:16:46
(UTC+00:00)

Daily predictions for brighter satellites

Satellite Brightness Start Highest point End
(mag) Time Altitude Azimuth Time Altitude Azimuth Time Altitude Azimuth
Cosmos 2322 Rocket 2.4 13:37:11 10° SW 13:42:54 83° NW 13:48:38 10° NE
Spot 2 4.3 13:40:04 10° SSE 13:44:39 70° ENE 13:49:31 10° NNW
NOSS 2-1 (C) 4.1 13:41:45 10° NW 13:46:15 87° SW 13:52:34 10° SE
PAYLOAD B 4.3 13:40:47 10° SE 13:46:16 60° ENE 13:51:45 10° NNW
Aureole 2 Rocket 1.7 13:45:02 10° NNW 13:47:45 81° ENE 13:50:31 10° SSE
Radarsat Rocket 4.2 13:42:30 10° SE 13:48:29 64° ENE 13:55:11 10° NNW
ATLAS 5 CENTAUR R/B 3.6 13:43:44 10° WNW 13:48:57 46° SW 13:55:01 10° SSE
SJ-7 4.3 13:46:44 10° SSE 13:50:41 65° ENE 13:54:39 10° N
MOS 1-B 4.4 13:45:23 10° SSE 13:51:09 71° ENE 13:56:57 10° NNW
NOSS 2-1 (D) 4.2 13:47:11 10° NW 13:51:43 82° SW 13:58:03 10° SE
SMAP 3.4 13:47:40 10° SE 13:52:02 42° ENE 13:56:26 10° N
Cosmos 2074 Rocket 4.0 13:47:14 10° N 13:53:25 61° ENE 13:59:35 10° SSE
YAOGAN 6 2.9 13:50:36 10° SE 13:54:06 45° ENE 13:57:36 10° N
Cosmos 1184 Rocket 3.4 13:51:21 10° NNW 13:54:36 61° W 13:57:48 10° S
CZ-4B DEB 4.2 13:49:57 10° SSE 13:55:27 77° ENE 14:00:57 10° NNW
ADEOS Rocket 3.8 13:49:56 10° NNE 13:57:19 55° E 14:04:56 10° S
PSLV R/B 3.9 13:53:30 10° SSE 13:57:37 77° ENE 14:01:44 10° NNW
Cosmos 2333 Rocket 2.7 13:52:49 10° S 13:58:07 41° ESE 14:03:24 10° NE
Cosmos 1607 4.3 13:52:10 10° SSW 13:58:19 55° SE 14:04:37 10° NE
Meteor 1-27 4.3 13:53:37 10° S 13:59:08 60° E 14:04:45 10° NNE
CZ-2C R/B 4.3 13:59:02 10° E 14:02:24 18° NE 14:05:41 10° N
Cosmos 1697 Rocket 4.3 13:58:11 10° WNW 14:02:43 24° NNW 14:07:16 10° NNE
COSMOS 2428 3.4 13:58:13 10° S 14:03:25 37° ESE 14:08:38 10° NE
Cosmos 372 Rocket 4.1 13:58:38 10° NNW 14:03:48 84° WSW 14:08:58 10° SSE
Cosmos 2184 Rocket 4.0 13:58:09 10° N 14:04:34 70° ENE 14:10:56 10° SSE
CZ-4C R/B 3.7 14:01:39 10° NNE 14:05:01 36° E 14:08:23 10° SSE
SL-08 R/B 3.7 14:00:04 10° NNE 14:05:01 74° WNW 14:09:53 10° SSW
Cosmos 2298 Rocket 4.0 14:00:54 10° NNW 14:06:14 72° ENE 14:11:32 10° SE
Cosmos 1818 3.6 14:01:23 10° NW 14:06:55 85° NE 14:12:24 10° SE
Cosmos 2278 Rocket 2.2 14:02:05 10° NNW 14:07:48 78° NE 14:13:29 10° SE
Cosmos 482 Debris 4.3 14:06:24 10° SW 14:07:58 23° S 14:09:31 10° ESE
Cosmos 2150 Rocket 3.9 14:02:57 10° NNW 14:08:09 69° ENE 14:13:17 10° SE
Cosmos 1763 Rocket 3.4 14:03:14 10° SSW 14:08:19 79° ESE 14:13:25 10° NNE
H-2A R/B 2.8 14:05:22 10° NNE 14:09:06 32° E 14:12:52 10° SSE
Cosmos 2084 Rocket 3.6 14:05:25 10° SW 14:09:29 58° SE 14:13:23 12° ENE
NOAA 6 4.1 14:04:57 10° SSE 14:10:08 87° ENE 14:15:19 10° NNW
Landsat 5 4.0 14:08:58 10° NNE 14:13:07 44° E 14:17:21 10° S
CREW DRAGON DEMO-1 DEB 4.1 14:11:05 10° WSW 14:13:52 36° S 14:16:39 10° ESE
Cosmos 405 3.6 14:10:40 10° SSE 14:13:53 36° E 14:17:07 10° NNE
Cosmos 1862 3.4 14:12:47 10° N 14:16:48 55° ENE 14:20:45 10° SSE
Cosmos 1633 Rocket 4.2 14:15:28 10° N 14:18:53 21° ENE 14:22:16 10° ESE
Cosmos 2360 Rocket 2.4 14:18:57 10° SW 14:24:35 74° NW 14:30:15 10° NNE
Cosmos-2242 4.1 14:21:42 10° SW 14:25:55 45° WNW 14:30:11 10° N
Cosmos 1125 Rocket 3.4 14:21:04 10° NNW 14:26:17 70° ENE 14:31:29 10° SE
CZ-4 R/B 2.6 14:26:35 10° ESE 14:29:32 21° ENE 14:32:32 10° N
Cosmos 2208 Rocket 4.2 14:25:14 10° S 14:30:21 53° ESE 14:35:34 10° NE
Cosmos 921 Rocket 3.9 14:26:57 10° SW 14:31:22 52° WNW 14:35:49 10° NNE
IRS-1C Rocket 4.5 14:27:58 10° SE 14:32:53 41° ENE 14:37:50 10° N
Cosmos 44 3.7 14:28:14 10° NW 14:33:16 52° NNE 14:38:28 10° ESE
Cosmos 2219 Rocket 2.3 14:28:00 10° SSW 14:33:36 63° ESE 14:38:56 11° NE
CZ-4B R/B 3.2 14:31:02 10° SSE 14:36:23 87° WSW 14:41:44 10° NNW
Cosmos 1500 Rocket 3.6 14:32:44 10° NNW 14:37:08 86° W 14:41:32 10° S
Cosmos 1980 Rocket 3.9 14:33:48 10° WNW 14:38:15 23° NNW 14:42:42 10° NNE
CZ-2D R/B 4.1 14:35:07 10° ESE 14:38:25 29° ENE 14:41:46 10° N
SL-16 R/B 3.3 14:33:27 10° WSW 14:38:46 39° NW 14:44:07 10° NNE
FengYun 1-2 T 4.2 14:33:40 10° SSE 14:39:11 71° ENE 14:44:42 10° NNW
USA 267 3.5 14:33:33 10° ESE 14:40:04 74° SSW 14:46:38 10° WNW
Cosmos 2221 2.4 14:36:34 10° S 14:40:53 74° E 14:45:14 10° NNE
NOAA 12 4.2 14:35:50 10° SSE 14:41:11 87° WSW 14:46:33 10° NNW
Cosmos 2237 Rocket 3.0 14:36:48 10° SSE 14:41:39 30° ESE 14:44:56 17° ENE
Cosmos 1356 3.9 14:38:47 10° N 14:42:02 37° ENE 14:45:15 10° SE
ERS-2 3.2 14:41:43 21° ENE 14:42:50 24° E 14:45:53 10° SSE
Cosmos 468 Rocket 4.5 14:38:16 10° SW 14:43:20 59° NW 14:48:26 10° NNE
Cosmos 2218 Rocket 4.4 14:38:05 10° N 14:43:50 39° ENE 14:49:31 10° SE
Cosmos 1939 Rocket 3.1 14:40:23 10° SE 14:44:03 42° ENE 14:47:46 10° N
NOAA 11 4.1 14:39:05 10° SSE 14:44:29 73° ENE 14:49:56 10° NNW
Cosmos 2322 3.7 14:43:43 10° SW 14:49:25 86° NW 14:54:45 12° NE
Cosmos 2369 Rocket 3.0 14:44:51 10° NNW 14:50:00 32° NE 14:53:01 20° E
Cosmos 1869 3.8 14:47:05 10° SSW 14:51:06 63° WNW 14:55:12 10° N
Cosmos 540 Rocket 3.5 14:46:52 10° SSW 14:52:01 87° WNW 14:57:02 11° NNE
USA 81 4.5 14:47:08 10° N 14:52:07 39° ENE 14:57:04 10° SE
ISS -1.4 14:51:12 10° SSE 14:52:32 12° SE 14:53:08 11° SE
YAOGAN 1 3.3 14:49:38 10° ESE 14:53:24 30° ENE 14:57:12 10° N
CZ-4B R/B 2.0 14:53:47 30° E 14:53:53 30° E 14:56:38 10° SSE
CRYOSAT 2 4.3 14:50:10 10° N 14:55:04 69° E 14:59:57 10° S
Meteor 2-2 Rocket 4.3 14:49:14 10° S 14:55:11 82° ESE 15:01:05 10° NNE
Cosmos 2366 rocket 4.2 14:50:38 10° N 14:56:37 44° ENE 15:02:29 10° SE
COSMO-SKYMED 1 3.4 14:56:32 24° ENE 14:57:52 28° E 15:01:38 10° SSE
Okean-O 3.1 14:54:07 10° SE 14:58:12 38° ENE 15:02:19 10° N
Cosmos 1743 Rocket 4.4 14:54:35 10° NNW 14:59:00 55° W 15:03:21 10° S
CSL-04 Rocket 4.3 14:55:27 14° ESE 14:59:14 31° ENE 15:03:52 10° N
CORIOLIS 4.4 14:53:58 10° S 14:59:22 73° WSW 15:04:50 10° NNW
Cosmos 1980 4.1 14:54:06 10° S 14:59:23 41° ESE 15:02:42 21° NE
Cosmos 841 Rocket 3.6 14:54:49 10° SSW 15:00:03 80° WNW 15:05:00 12° NNE
Envisat 4.4 14:56:53 10° SSW 15:01:42 42° W 15:06:32 10° NNW
SeaSat 1 4.3 15:03:57 14° NNE 15:05:13 15° NNE 15:07:59 10° NNW
Nadezhda 1 Rocket 4.0 14:58:59 10° S 15:05:19 80° E 15:11:46 10° NNE
H-2A R/B 2.6 15:02:28 10° SE 15:07:16 36° ENE 15:11:59 10° N
H-2A R/B 4.5 15:04:16 10° SSW 15:08:09 32° W 15:11:57 10° NNW
Cosmos 2292 4.3 15:06:35 10° S 15:09:43 76° E 15:13:36 10° NNE
Cosmos 2154 Rocket 4.4 15:04:17 10° NNW 15:10:35 68° W 15:16:52 10° S
Sich 1 3.0 15:06:42 10° NNW 15:11:11 86° ENE 15:15:34 10° SSE
Okean O Rocket 2.6 15:07:18 10° S 15:11:32 50° W 15:15:50 10° NNW
BREEZE-M DEB (TANK) 4.0 15:10:21 10° SSW 15:11:32 15° SSE 15:11:32 15° SSE
EP 1 4.3 15:10:23 10° WSW 15:13:06 69° NW 15:13:22 61° N
Cosmos 2297 3.6 15:07:57 10° NNW 15:13:40 73° NE 15:19:21 10° SE
Cosmos 962 Rocket 4.5 15:08:51 10° NNW 15:15:14 88° ENE 15:21:31 10° S
CZ-4 R/B 4.4 15:11:19 10° SSE 15:15:25 63° ENE 15:19:33 10° N
Cosmos 1842 Rocket 4.3 15:12:22 10° SSW 15:16:36 52° WNW 15:20:52 10° N
Cosmos 405 Rocket 4.4 15:13:45 10° NNW 15:17:18 36° W 15:20:55 10° SSW
Cosmos 2341 Rocket 3.9 15:11:37 10° N 15:17:56 84° E 15:24:15 10° SSE
Cosmos 1805 Rocket 4.0 15:14:54 10° NNW 15:19:21 65° W 15:23:45 10° S
Cosmos 1933 4.3 15:17:06 10° SSE 15:19:41 29° SE 15:19:41 29° SE
USA 281 3.2 15:15:28 10° SE 15:22:03 88° ENE 15:28:41 10° NNW
Cosmos 1814 Rocket 4.3 15:17:30 10° SW 15:22:50 71° WNW 15:27:14 15° NNE
Cosmos 1943 Rocket 2.2 15:17:49 10° NNW 15:23:18 58° NE 15:26:21 26° ESE
Cosmos 1666 Rocket 3.4 15:21:00 10° N 15:25:25 80° ENE 15:29:50 10° SSE
Cosmos 2322 Rocket 3.7 15:22:52 10° W 15:27:46 29° NNW 15:31:55 13° NNE
SL-16 R/B 3.2 15:24:03 10° SSE 15:27:59 26° ESE 15:27:59 26° ESE
Helios 1A Rocket 2.7 15:28:08 10° SSE 15:32:09 69° ENE 15:36:11 10° NNW
Cosmos 44 Rocket 4.1 15:28:14 10° NW 15:32:58 37° NNE 15:33:57 34° NE
Cosmos 2285 Rocket 3.9 15:27:18 10° NNW 15:33:47 82° ENE 15:40:11 10° SSE
MOS 1 Rocket 4.2 15:34:55 35° ESE 15:34:55 35° ESE 15:39:14 10° SSE
Cosmos 1151 Rocket 4.2 15:30:41 10° SSE 15:32:56 27° SE 15:32:56 27° SE
ARGOS 3.4 15:34:14 36° ESE 15:35:47 45° ENE 15:40:55 10° N
NOSS 0 Rocket 3.9 15:30:51 10° SSW 15:37:05 78° ESE 15:40:40 27° NE
NOAA 15 4.5 15:35:33 10° SSE 15:40:50 76° ENE 15:46:09 10° NNW
CZ-2C R/B 2.8 15:36:33 10° SSE 15:41:40 79° ENE 15:46:33 10° NNW
Meteor 1-20 Rocket 4.3 15:36:10 10° NNW 15:42:03 88° WSW 15:47:55 10° SSE
Cosmos 2333 Rocket 2.8 15:36:45 10° WSW 15:42:20 53° NW 15:46:09 20° NNE
ADEOS Rocket 4.4 15:35:39 10° NNE 15:42:46 50° WNW 15:50:11 10° SW
Cosmos 836 Rocket 4.4 15:37:34 10° SSW 15:42:48 66° ESE 15:44:43 39° NE
H-2A R/B 3.3 15:41:19 10° N 15:45:10 39° WNW 15:49:03 10° SW
EO 1 Delta rocket 4.1 15:41:48 18° NNE 15:45:27 60° E 15:51:22 10° S
Ariane Rocket 4.4 15:47:27 23° NNE 15:47:27 23° NNE 15:49:55 10° N
Cosmos 1607 4.4 15:39:22 10° WSW 15:45:41 58° NNW 15:49:06 28° NE
SL-8 Rocket 4.0 15:39:53 10° NNW 15:46:08 83° W 15:52:23 10° S
SKYMED 2 3.4 15:45:09 49° NE 15:46:13 71° ESE 15:50:33 10° S
Cosmos 864 Rocket 4.4 15:40:16 10° N 15:46:39 83° ENE 15:52:57 10° SSE
Cosmos 1606 2.7 15:43:04 10° SSW 15:46:59 84° WNW 15:48:01 47° N
USA 215 3.5 15:44:55 37° E 15:47:16 53° SE 15:53:38 10° SW
Cosmos 1867 4.3 15:42:34 10° S 15:46:51 33° SE 15:46:51 33° SE
COSMOS 2428 3.2 15:41:51 10° SW 15:47:32 59° NW 15:51:10 22° NNE
Cosmos 389 Rocket 2.9 15:44:46 10° SSW 15:47:23 50° SSW 15:47:23 50° SSW
Cosmos 1697 Rocket 4.5 15:44:59 10° NW 15:48:45 18° N 15:50:09 16° NNE
Cosmos 2084 Rocket 4.1 15:45:05 10° W 15:49:07 45° NNW 15:49:54 40° N
Cosmos 724 4.4 15:43:36 10° SW 15:49:34 80° NW 15:52:19 35° NE
Cosmos 2278 Rocket 4.4 15:46:45 10° NW 15:51:23 26° WSW 15:56:00 10° SSW
Cosmos 2181 Rocket 3.9 15:48:51 10° S 15:55:15 75° E 16:01:39 10° NNE
Cosmos 1633 Rocket 3.4 15:52:45 10° NNW 15:57:08 65° W 16:01:28 10° S
Meteor 1-25 Rocket 4.4 15:52:34 10° NNW 15:58:09 72° W 16:03:46 10° S
Cosmos 1821 Rocket 4.0 15:53:27 10° N 15:59:32 54° ENE 16:00:36 48° ESE
CZ-4 R/B 1.7 16:01:50 22° S 16:04:12 63° WSW 16:08:12 10° NNW
Meteor 1-5 Rocket 4.3 16:00:21 10° N 16:06:16 56° ENE 16:06:22 56° ENE
Cosmos 2360 Rocket 3.8 16:04:47 10° W 16:09:31 27° NNW 16:12:25 18° NNE
SL-08 R/B 4.3 16:05:18 10° N 16:11:34 83° E 16:17:42 10° SSE
CSL-04 Debris 4.1 16:10:09 20° SSE 16:14:04 86° WSW 16:19:38 10° NNW
Cosmos 44 4.1 16:09:34 10° NW 16:14:38 53° SW 16:16:57 31° S
ERS-2 3.3 16:16:17 40° NW 16:16:31 41° WNW 16:19:59 10° SW
Cosmos 2219 Rocket 3.3 16:12:37 10° WSW 16:17:54 38° NW 16:20:39 24° NNE
NOSS 3-3 (A) 4.4 16:11:03 10° NW 16:18:03 68° NNE 16:19:47 54° E
NOSS 3-3 (C) 4.4 16:11:09 10° NW 16:18:09 68° NNE 16:19:51 54° E
SJ-11-01 4.4 16:18:50 59° S 16:19:40 76° WSW 16:24:26 10° NNW
Cosmos 1980 Rocket 4.0 16:20:38 10° NW 16:24:19 17° N 16:24:50 17° N
SL-16 R/B 4.1 16:20:24 10° WNW 16:24:28 20° NNW 16:26:18 17° N
Cosmos 2237 Rocket 2.4 16:19:44 10° SW 16:25:21 68° NW 16:26:47 49° N
CZ-4B R/B 3.8 16:26:55 20° W 16:26:55 20° W 16:28:33 10° WSW
ISS -0.8 16:25:36 10° SW 16:26:06 13° SW 16:26:06 13° SW
YAOGAN 1 3.6 16:26:41 20° SSW 16:29:23 45° W 16:33:35 10° NNW
Cosmos 1470 Rocket 4.3 16:27:10 10° NNW 16:31:14 51° W 16:31:14 51° W
COSMO-SKYMED 1 3.5 16:33:46 44° NW 16:34:13 46° WNW 16:38:23 10° SW
Cosmos 1656 Rocket 3.9 16:28:46 10° NNW 16:33:32 57° N 16:33:32 57° N
Cosmos 2369 Rocket 2.1 16:28:54 10° NW 16:34:39 82° WSW 16:34:50 81° SSW
Okean-O 4.1 16:30:38 10° SSW 16:34:43 36° W 16:38:51 10° NNW
CSL-04 Rocket 4.0 16:37:06 35° S 16:39:19 62° WSW 16:44:37 10° NNW
SeaSat 1 4.3 16:43:44 21° N 16:43:44 21° N 16:45:48 10° NNW
Cosmos 1980 4.3 16:37:50 10° SW 16:43:25 53° NW 16:44:33 46° N
H-2A R/B 2.8 16:42:57 19° S 16:46:36 50° W 16:51:41 10° NNW
Cosmos 1932 4.5 16:46:52 10° SW 16:53:26 80° NW 16:53:30 80° NNW
Cosmos 1943 Rocket 3.4 17:01:51 10° NW 17:06:53 36° WSW 17:07:55 33° SW
SL-16 R/B 3.4 17:06:42 10° SW 17:09:54 35° SW 17:09:54 35° SW
Cosmos 2322 Rocket 4.2 17:09:56 10° NW 17:13:44 18° N 17:13:44 18° N
ARGOS 4.2 17:15:46 40° WSW 17:16:08 41° W 17:21:16 10° NNW
Cosmos 2333 Rocket 4.1 17:23:27 10° WNW 17:27:52 23° NNW 17:28:10 22° NNW
USA 215 3.7 17:32:16 56° WSW 17:32:16 56° WSW 17:37:14 10° WSW
Cosmos 2219 Rocket 4.5 17:59:27 10° WNW 18:02:22 18° NNW 18:02:22 18° NNW
Cosmos 2237 Rocket 4.3 18:05:48 10° W 18:08:37 22° NW 18:08:37 22° NW
